[[{"header":{"parameterUnit":"m.s-1","parameterCategory":2,"la1":30.2991,"la2":30.254,"lo1":-89.0895,"lo2":-89.0444,"dy":0.0017,"dx":0.0017,"nx":28,"ny":28,"refTime":"2023-10-28T21:00:00:Z","depth":"0","parameterNumber":2,"parameterNumberName":"U-component_of_CURRENTS"},"data":[0,0,0,0,0,0,0,0,0,0,0,0,0,0,0,0,0,0,0,0,0,0,0,0,0,0,0,0,0,0,0,0,0,0,0,0,0,0,0,0,0,0,0,0,0,0,0,0,0,0,0,0,0,0,0,0,0,0,-0.3571,-0.3573,0,-0.3648,-0.3648,-0.3648,-0.3586,-0.3584,-0.3583,-0.3582,-0.3475,-0.3474,-0.3472,0,0,0,0,0,0,0,0,0,0,0,0,0,-0.323,-0.3237,-0.3571,-0.3573,-0.3575,-0.3648,-0.3648,-0.3648,-0.3586,-0.3584,-0.3583,-0.3581,-0.3476,-0.3474,-0.3472,0,0,0,0,0,0,0,0,0,0,0,0,0,-0.3338,-0.3239,-0.3571,-0.3563,-0.3564,-0.3648,-0.3648,-0.3647,-0.3586,-0.3584,-0.3582,-0.358,-0.3476,-0.3474,-0.3472,-0.35,0,0,-0.3465,-0.3464,0,0,0,0,0,0,0,0,-0.3332,-0.3348,-0.3562,-0.3564,-0.3565,-0.3617,-0.3489,-0.3594,-0.3587,-0.3564,-0.3582,-0.3579,-0.3516,-0.351,-0.3513,-0.3495,-0.349,-0.3464,-0.3463,-0.3462,-0.3461,0,0,0,0,0,0,0,-0.3324,-0.3344,-0.3588,-0.3565,-0.3567,-0.3509,-0.3521,-0.3508,-0.3537,-0.3566,-0.3565,-0.3595,-0.3513,-0.3515,-0.351,-0.3489,-0.3464,-0.3462,-0.3461,-0.346,-0.3515,-0.3518,0,0,0,0,0,0,-0.3353,-0.3339,-0.3586,-0.3592,-0.3456,-0.3518,-0.3532,-0.3592,-0.3541,-0.3537,-0.3597,-0.3592,-0.352,-0.3512,-0.3505,-0.3498,-0.3462,-0.346,-0.3459,-0.3512,-0.3516,-0.3519,0,0,0,0,0,0,-0.3346,-0.3376,-0.3583,-0.3474,-0.3498,-0.3529,-0.3595,-0.3595,-0.3596,-0.3569,-0.3558,-0.36,-0.3518,-0.3509,-0.3508,-0.3494,-0.3459,-0.3457,-0.3509,-0.3513,-0.3517,-0.3506,0,0,0,0,0,0,-0.3336,-0.3373,-0.3399,-0.3478,-0.3506,-0.3624,-0.3598,-0.3598,-0.3625,-0.3618,-0.3569,-0.3557,-0.3516,-0.3512,-0.3506,-0.349,-0.3455,-0.3505,-0.3511,-0.3516,-0.3503,-0.3509,-0.3515,0,0,0,0,0,-0.3324,-0.3362,-0.34,-0.3429,-0.3552,-0.3626,-0.3632,-0.3635,-0.3627,-0.3627,-0.3612,-0.3558,-0.3541,-0.3513,-0.3505,-0.3487,-0.3503,-0.3509,-0.3515,-0.35,-0.3508,-0.3515,0,0,0,0,0,0,-0.3187,-0.3364,-0.3405,-0.3486,-0.3556,-0.362,-0.3619,-0.3647,-0.364,-0.3622,-0.3589,-0.3577,-0.3577,-0.356,-0.353,-0.3532,-0.3516,-0.3521,-0.3507,-0.3514,-0.352,-0.3471,-0.3453,0,0,0,0,0,-0.3191,-0.3274,-0.3414,-0.3461,-0.351,-0.3573,-0.3597,-0.3619,-0.3644,-0.3638,-0.362,-0.3606,-0.3603,-0.3579,-0.3578,-0.3569,-0.351,-0.3564,-0.357,-0.3574,-0.3538,-0.3467,-0.346,-0.354,-0.354,-0.3539,0,0,-0.314,-0.325,-0.3288,-0.3439,-0.3486,-0.3536,-0.3576,-0.3624,-0.3638,-0.3628,-0.3614,-0.363,-0.3617,-0.361,-0.3607,-0.3581,-0.3528,-0.3582,-0.3585,-0.3545,-0.3472,-0.3463,-0.3455,-0.3544,-0.3543,-0.3543,0,0,-0.3065,-0.3195,-0.3233,-0.3313,-0.3428,-0.3493,-0.3519,-0.3611,-0.3621,-0.3654,-0.365,-0.3663,-0.3657,-0.3637,-0.3628,-0.3676,-0.3579,-0.3687,-0.364,-0.3574,-0.3563,-0.3554,-0.3473,-0.3456,-0.3667,-0.3667,-0.3667,0,-0.2991,-0.3084,-0.3237,-0.3289,-0.3337,-0.3478,-0.3497,-0.3551,-0.3618,-0.3617,-0.3643,-0.3653,-0.3661,-0.3625,-0.3653,-0.3677,-0.3614,-0.3599,-0.3571,-0.3561,-0.3551,-0.347,-0.3451,-0.3668,-0.3668,-0.3667,-0.3667,0,-0.2951,-0.3022,-0.3046,-0.3182,-0.3247,-0.3297,-0.3428,-0.3475,-0.3534,-0.3572,-0.3586,-0.3622,-0.3612,-0.3641,-0.3655,-0.3604,-0.3576,-0.3596,-0.3528,-0.354,-0.3457,-0.3437,-0.3668,-0.3668,-0.3668,-0.3668,0,0,-0.2804,-0.2986,-0.2989,-0.3032,-0.3205,-0.3255,-0.331,-0.339,-0.3391,-0.3476,-0.3445,-0.3509,-0.354,-0.3537,-0.3568,-0.3522,-0.3438,-0.3523,-0.3519,-0.3397,-0.3254,-0.3193,-0.3166,-0.3432,-0.3429,-0.3426,-0.3223,0,-0.2719,-0.2778,-0.2896,-0.2931,-0.2986,-0.3134,-0.3169,-0.3253,-0.3322,-0.3337,-0.34,-0.3402,-0.3498,-0.3491,-0.3471,-0.3459,-0.3385,-0.3489,-0.3299,-0.3293,-0.3199,-0.3142,-0.3028,-0.2832,-0.3203,-0.32,-0.3198,0,-0.2649,-0.271,-0.2725,-0.2843,-0.2875,-0.2905,-0.299,-0.304,-0.3117,-0.3162,-0.3192,-0.325,-0.3252,-0.3323,-0.3256,-0.3311,-0.3269,-0.325,-0.3242,-0.3161,-0.3194,-0.2886,-0.2782,-0.2778,-0.3167,-0.3169,-0.3172,0,-0.2499,-0.2596,-0.26,-0.2646,-0.2792,-0.2796,-0.2865,-0.2956,-0.2992,-0.3035,-0.3045,-0.3072,-0.3083,-0.3051,-0.3101,-0.3143,-0.2991,-0.3043,-0.2929,-0.2924,-0.2776,-0.2763,-0.2599,-0.2922,-0.2922,-0.2923,-0.2923,0,-0.2408,-0.2413,-0.2525,-0.2539,-0.2531,-0.2667,-0.2658,-0.2737,-0.2809,-0.2823,-0.2935,-0.2932,-0.3012,-0.2987,-0.3002,-0.2909,-0.2911,-0.2872,-0.285,-0.2776,-0.2767,-0.2719,-0.277,-0.2915,-0.2917,-0.2918,-0.292,0,-0.2261,-0.2339,-0.2354,-0.245,-0.247,-0.2463,-0.2566,-0.2576,-0.2657,-0.267,-0.2683,-0.2791,-0.2762,-0.2813,-0.2753,-0.2766,-0.2637,-0.2648,-0.2559,-0.253,-0.2422,-0.2479,-0.2264,-0.2204,-0.2447,-0.2444,-0.2441,0,-0.2197,-0.2188,-0.2255,-0.2259,-0.2297,-0.232,-0.2352,-0.2477,-0.2505,-0.2585,-0.2577,-0.2575,-0.2572,-0.2483,-0.2468,-0.2396,-0.247,-0.2268,-0.2337,-0.2346,-0.2393,-0.2448,-0.2419,-0.2137,-0.2132,-0.2128,-0.2125,0,-0.2068,-0.2084,-0.2105,-0.2104,-0.2122,-0.2152,-0.2204,-0.2212,-0.2351,-0.2364,-0.2372,-0.2358,-0.2301,-0.2211,-0.2157,-0.2121,-0.2216,-0.2183,-0.2197,-0.2116,-0.2154,-0.2109,-0.2355,-0.209,-0.2093,-0.2096,-0.2098,-0.2099,-0.1957,-0.1933,-0.1955,-0.1946,-0.197,-0.1976,-0.1958,-0.2034,-0.2048,-0.2072,-0.2135,-0.2089,-0.2063,-0.196,-0.1921,-0.1827,-0.1909,-0.1812,-0.1868,-0.1915,-0.1881,-0.2048,-0.1777,-0.1779,-0.178,-0.1781,-0.1782,0,-0.1819,-0.1817,-0.1806,-0.1797,-0.1768,-0.1829,-0.1858,-0.1835,-0.181,-0.1859,-0.1845,-0.1814,-0.1712,-0.1716,-0.1632,-0.1564,-0.1549,-0.1552,-0.1602,-0.1579,-0.1692,-0.1708,-0.1404,-0.1404,-0.1404,-0.1404,-0.1404,-0.1404,-0.175,-0.1698,-0.1698,-0.1601,-0.1593,-0.1527,-0.1518,-0.1509,-0.1525,-0.1476,-0.1488,-0.15,-0.1533,-0.1651,-0.1558,-0.1482,-0.1482,-0.141,-0.147,-0.1585,-0.1616,-0.1645,-0.1668,-0.1361,-0.1362,-0.1283,-0.1283,-0.1282]},{"header":{"parameterUnit":"m.s-1","parameterCategory":2,"la1":30.2991,"la2":30.254,"lo1":-89.0895,"lo2":-89.0444,"dy":0.0017,"dx":0.0017,"nx":28,"ny":28,"refTime":"2023-10-28T21:00:00:Z","depth":"0","parameterNumber":3,"parameterNumberName":"V-component_of_CURRENTS"},"data":[0,0,0,0,0,0,0,0,0,0,0,0,0,0,0,0,0,0,0,0,0,0,0,0,0,0,0,0,0,0,0,0,0,0,0,0,0,0,0,0,0,0,0,0,0,0,0,0,0,0,0,0,0,0,0,0,0,0,-0.0072,-0.007,0,0.0112,0.0114,0.0116,0.0208,0.0208,0.0209,0.0209,0.042,0.0426,0.0431,0,0,0,0,0,0,0,0,0,0,0,0,0,-0.031,-0.0306,-0.0072,-0.007,-0.0067,0.0112,0.0114,0.0117,0.0208,0.0208,0.0209,0.0209,0.0418,0.0425,0.0432,0,0,0,0,0,0,0,0,0,0,0,0,0,-0.0175,-0.0305,-0.0072,0.0001,0.0009,0.0111,0.0114,0.0117,0.0208,0.0208,0.0209,0.0209,0.0416,0.0424,0.0432,0.048,0,0,0.0458,0.0461,0,0,0,0,0,0,0,0,-0.0183,-0.0167,-0.0012,-0.0004,0.0006,0.0138,0.0108,0.024,0.0208,0.0132,0.0209,0.0209,0.0329,0.0344,0.0377,0.049,0.0499,0.0458,0.0464,0.0467,0.0469,0,0,0,0,0,0,0,-0.0193,-0.0174,-0.0,-0.001,0.0001,0.0036,0.0055,0.0134,0.0227,0.0138,0.0146,0.0168,0.0334,0.0369,0.0383,0.0502,0.0458,0.0466,0.0471,0.0474,0.0685,0.0685,0,0,0,0,0,0,-0.0215,-0.0183,-0.0006,0.0006,-0.0089,0.004,0.0062,0.0095,0.0226,0.0246,0.0167,0.0171,0.0354,0.0373,0.039,0.0431,0.0467,0.0475,0.048,0.0684,0.0685,0.0685,0,0,0,0,0,0,-0.022,-0.02,-0.0013,-0.0085,-0.0058,0.0044,0.0081,0.0098,0.0132,0.0248,0.0268,0.0183,0.0355,0.0379,0.0466,0.0441,0.0479,0.0486,0.0683,0.0684,0.0685,0.0528,0,0,0,0,0,0,-0.0228,-0.0203,-0.0198,-0.0086,-0.0055,0.003,0.0081,0.0102,0.0146,0.0153,0.0268,0.0288,0.0357,0.0453,0.0474,0.0453,0.0493,0.0682,0.0684,0.0685,0.0533,0.0524,0.0516,0,0,0,0,0,-0.0237,-0.0235,-0.0198,-0.0178,-0.0047,0.0029,0.0047,0.012,0.0146,0.0152,0.0243,0.0284,0.0475,0.0461,0.0485,0.0466,0.0682,0.0683,0.0685,0.0536,0.0526,0.0516,0,0,0,0,0,0,-0.0344,-0.0222,-0.018,-0.0143,-0.0069,0.0045,0.0055,0.0111,0.0188,0.0192,0.0301,0.0328,0.0395,0.0463,0.0444,0.0535,0.0582,0.0588,0.0461,0.0452,0.0444,0.0412,0.0499,0,0,0,0,0,-0.0363,-0.0327,-0.021,-0.0187,-0.0153,-0.005,-0.0013,0.0039,0.0127,0.016,0.0246,0.0339,0.0422,0.046,0.0547,0.0596,0.0651,0.0601,0.0593,0.0585,0.0579,0.0638,0.0632,0.069,0.069,0.069,0,0,-0.04,-0.0329,-0.031,-0.0207,-0.0146,-0.0111,-0.0029,0.0017,0.0044,0.0172,0.0225,0.0318,0.0434,0.0491,0.0525,0.054,0.0599,0.0587,0.0578,0.0578,0.0638,0.0632,0.0627,0.0691,0.0691,0.0691,0,0,-0.046,-0.0393,-0.0382,-0.0326,-0.0237,-0.0171,-0.0162,-0.005,-0.0007,0.0066,0.0163,0.024,0.0366,0.0437,0.0491,0.0493,0.056,0.052,0.044,0.0495,0.049,0.0486,0.0536,0.0538,0.0504,0.0504,0.0504,0,-0.0514,-0.0468,-0.0374,-0.0351,-0.0317,-0.0205,-0.0195,-0.0134,-0.0012,0.0026,0.006,0.0249,0.0336,0.0413,0.0413,0.0468,0.0514,0.0457,0.0479,0.0476,0.0475,0.0528,0.0532,0.0497,0.0498,0.0498,0.0499,0,-0.055,-0.0522,-0.0518,-0.0446,-0.0405,-0.038,-0.028,-0.0239,-0.0171,-0.0096,-0.0003,0.0125,0.0234,0.0268,0.0342,0.0378,0.0419,0.0462,0.0487,0.0458,0.0518,0.0525,0.0486,0.0489,0.0491,0.0493,0,0,-0.0635,-0.0559,-0.0557,-0.054,-0.0451,-0.0416,-0.0387,-0.0308,-0.0277,-0.0178,-0.0129,0.0002,0.0076,0.0144,0.0242,0.0286,0.031,0.0354,0.0361,0.0374,0.0428,0.0481,0.0495,0.0349,0.035,0.035,0.0468,0,-0.0688,-0.0683,-0.0622,-0.0622,-0.0606,-0.0515,-0.0489,-0.0413,-0.033,-0.0258,-0.0139,-0.0048,0.0027,0.0081,0.0132,0.0291,0.0323,0.0274,0.0482,0.0488,0.0514,0.0503,0.0543,0.0654,0.0475,0.0476,0.0477,0,-0.0728,-0.0716,-0.0731,-0.0686,-0.0671,-0.0661,-0.0593,-0.0553,-0.0437,-0.037,-0.0279,-0.0165,-0.0059,0.0,0.0193,0.0158,0.0269,0.0371,0.0378,0.0488,0.0555,0.0662,0.0674,0.082,0.0489,0.0488,0.0487,0,-0.0808,-0.0785,-0.0803,-0.0789,-0.0727,-0.0723,-0.0689,-0.0593,-0.0548,-0.0439,-0.0384,-0.0249,-0.015,-0.0016,0.0202,0.0196,0.0413,0.0435,0.0579,0.0584,0.0692,0.0706,0.0846,0.0538,0.0538,0.0537,0.0537,0,-0.0865,-0.0874,-0.0846,-0.0852,-0.0867,-0.0801,-0.079,-0.073,-0.064,-0.0576,-0.0449,-0.0358,-0.0148,0.0016,0.0174,0.041,0.0393,0.0565,0.0618,0.0641,0.0648,0.0841,0.0891,0.0542,0.0541,0.054,0.0539,0,-0.0926,-0.0912,-0.0928,-0.0905,-0.09,-0.091,-0.0858,-0.0836,-0.0745,-0.0659,-0.0626,-0.0425,-0.0201,0.0012,0.027,0.0399,0.0701,0.068,0.0691,0.0742,0.0989,0.1028,0.1224,0.1321,0.0841,0.0843,0.0845,0,-0.0947,-0.0966,-0.0979,-0.0997,-0.0988,-0.0988,-0.0978,-0.09,-0.086,-0.0681,-0.0638,-0.0413,-0.0213,0.0172,0.0435,0.071,0.0817,0.0888,0.0878,0.1009,0.1092,0.1112,0.118,0.0961,0.0963,0.0966,0.0967,0,-0.0985,-0.1,-0.1018,-0.106,-0.1074,-0.1077,-0.1054,-0.1034,-0.0913,-0.0807,-0.0614,-0.0446,-0.0056,0.0301,0.0646,0.0801,0.0995,0.0938,0.1082,0.12,0.1225,0.1343,0.0871,0.0986,0.0984,0.0982,0.0981,0.0981,-0.1008,-0.1042,-0.1075,-0.111,-0.1134,-0.1142,-0.1124,-0.106,-0.0969,-0.0749,-0.0609,-0.028,0.0182,0.0691,0.0878,0.1238,0.1179,0.133,0.1367,0.1376,0.1467,0.1027,0.1194,0.1193,0.1193,0.1192,0.1192,0,-0.1021,-0.1063,-0.1111,-0.1152,-0.1179,-0.1178,-0.1145,-0.1078,-0.0944,-0.0687,-0.0461,0.0106,0.0561,0.0981,0.1463,0.1656,0.1697,0.1734,0.1776,0.1828,0.146,0.1463,0.1686,0.1686,0.1685,0.1685,0.1685,0.1685,-0.1029,-0.108,-0.1113,-0.1168,-0.1193,-0.1178,-0.1148,-0.1,-0.0805,-0.0365,0.0013,0.029,0.0821,0.1544,0.1991,0.2027,0.2197,0.2165,0.2258,0.2003,0.1967,0.1934,0.1951,0.2272,0.2272,0.2625,0.2628,0.2631]}],[{"header":{"parameterUnit":"m.s-1","parameterCategory":2,"la1":30.2991,"la2":30.254,"lo1":-89.0895,"lo2":-89.0444,"dy":0.0017,"dx":0.0017,"nx":28,"ny":28,"refTime":"2023-10-28T21:00:00:Z","depth":"2","parameterNumber":2,"parameterNumberName":"U-component_of_CURRENTS"},"data":[0,0,0,0,0,0,0,0,0,0,0,0,0,0,0,0,0,0,0,0,0,0,0,0,0,0,0,0,0,0,0,0,0,0,0,0,0,0,0,0,0,0,0,0,0,0,0,0,0,0,0,0,0,0,0,0,0,0,-0.2524,-0.2525,0,-0.2591,-0.2592,-0.2592,-0.2608,-0.2607,-0.2607,-0.2607,-0.2593,-0.2592,-0.2592,0,0,0,0,0,0,0,0,0,0,0,0,0,-0.2436,-0.2437,-0.2524,-0.2525,-0.2526,-0.2591,-0.2592,-0.2592,-0.2608,-0.2607,-0.2607,-0.2607,-0.2593,-0.2593,-0.2592,0,0,0,0,0,0,0,0,0,0,0,0,0,-0.2483,-0.2438,-0.2524,-0.2544,-0.2547,-0.2591,-0.2592,-0.2592,-0.2608,-0.2607,-0.2607,-0.2607,-0.2593,-0.2593,-0.2592,-0.2594,0,0,-0.2591,-0.2591,0,0,0,0,0,0,0,0,-0.248,-0.2485,-0.254,-0.2543,-0.2546,-0.2594,-0.2556,-0.259,-0.2608,-0.2581,-0.2607,-0.2607,-0.2588,-0.2588,-0.2597,-0.2593,-0.2593,-0.2591,-0.2591,-0.2591,-0.259,0,0,0,0,0,0,0,-0.2477,-0.2483,-0.2547,-0.2541,-0.2545,-0.256,-0.2566,-0.2563,-0.258,-0.2583,-0.2585,-0.2599,-0.2589,-0.2598,-0.2597,-0.2593,-0.2591,-0.2591,-0.259,-0.259,-0.2691,-0.2694,0,0,0,0,0,0,-0.2475,-0.248,-0.2545,-0.2549,-0.2516,-0.2562,-0.2568,-0.2576,-0.2582,-0.2585,-0.2599,-0.2599,-0.2598,-0.2597,-0.2596,-0.2634,-0.2591,-0.259,-0.259,-0.2688,-0.2692,-0.2695,0,0,0,0,0,0,-0.2472,-0.2479,-0.2542,-0.2519,-0.2529,-0.2564,-0.2572,-0.2577,-0.2595,-0.2596,-0.2596,-0.2612,-0.2598,-0.2597,-0.2625,-0.2632,-0.259,-0.259,-0.2685,-0.2689,-0.2693,-0.2686,0,0,0,0,0,0,-0.2469,-0.2478,-0.2487,-0.2519,-0.253,-0.2575,-0.2573,-0.2579,-0.2605,-0.2606,-0.2607,-0.2605,-0.2598,-0.2626,-0.2625,-0.263,-0.2589,-0.2681,-0.2687,-0.2692,-0.2682,-0.2689,-0.2695,0,0,0,0,0,-0.2466,-0.2484,-0.2487,-0.2496,-0.254,-0.2576,-0.2583,-0.2604,-0.2605,-0.2618,-0.2636,-0.2606,-0.266,-0.2628,-0.2626,-0.2631,-0.2678,-0.2685,-0.2691,-0.2679,-0.2688,-0.2695,0,0,0,0,0,0,-0.2445,-0.2489,-0.2492,-0.252,-0.2547,-0.258,-0.2598,-0.261,-0.2634,-0.2638,-0.2631,-0.2632,-0.2667,-0.2665,-0.2629,-0.2687,-0.2669,-0.2675,-0.2661,-0.2668,-0.2675,-0.2653,-0.2589,0,0,0,0,0,-0.2446,-0.2469,-0.2507,-0.2524,-0.2541,-0.2568,-0.2588,-0.2605,-0.2631,-0.2641,-0.2647,-0.2668,-0.2692,-0.2691,-0.2717,-0.273,-0.2692,-0.2743,-0.275,-0.2754,-0.2743,-0.2693,-0.2691,-0.2716,-0.2716,-0.2716,0,0,-0.2438,-0.2467,-0.2477,-0.2521,-0.2542,-0.257,-0.2579,-0.2614,-0.2633,-0.2634,-0.2664,-0.269,-0.2709,-0.274,-0.2754,-0.2731,-0.2734,-0.2763,-0.2766,-0.2751,-0.2699,-0.2695,-0.2692,-0.2721,-0.272,-0.2719,0,0,-0.2431,-0.2463,-0.2476,-0.2509,-0.2554,-0.2579,-0.2591,-0.2634,-0.2649,-0.2685,-0.2705,-0.2732,-0.2762,-0.2773,-0.2782,-0.284,-0.2781,-0.2865,-0.2853,-0.2805,-0.28,-0.2796,-0.2748,-0.2739,-0.2853,-0.2853,-0.2853,0,-0.2416,-0.2439,-0.2485,-0.2512,-0.2535,-0.2582,-0.2598,-0.2631,-0.2678,-0.2683,-0.2697,-0.2754,-0.2771,-0.279,-0.2828,-0.2844,-0.2812,-0.2808,-0.2805,-0.28,-0.2795,-0.2747,-0.2737,-0.2853,-0.2853,-0.2853,-0.2853,0,-0.2415,-0.2443,-0.2458,-0.2503,-0.2539,-0.2564,-0.2619,-0.2652,-0.2678,-0.2697,-0.2732,-0.2767,-0.2785,-0.2815,-0.2838,-0.2834,-0.2822,-0.2821,-0.2763,-0.279,-0.2741,-0.273,-0.2854,-0.2853,-0.2853,-0.2853,0,0,-0.2332,-0.2434,-0.2431,-0.2452,-0.2535,-0.2554,-0.2607,-0.2641,-0.2648,-0.2701,-0.2694,-0.2766,-0.2776,-0.2792,-0.2821,-0.2798,-0.2752,-0.28,-0.2798,-0.2714,-0.2641,-0.257,-0.2552,-0.274,-0.2738,-0.2737,-0.2618,0,-0.23,-0.234,-0.2404,-0.2434,-0.2458,-0.2533,-0.2568,-0.2615,-0.2647,-0.2662,-0.2697,-0.2716,-0.2768,-0.2775,-0.2764,-0.2769,-0.2725,-0.2784,-0.2662,-0.2658,-0.2558,-0.2537,-0.2368,-0.2243,-0.2608,-0.2606,-0.2605,0,-0.2254,-0.2292,-0.2315,-0.2394,-0.2408,-0.2436,-0.2481,-0.2521,-0.2572,-0.2598,-0.2623,-0.2654,-0.2671,-0.2696,-0.2663,-0.2698,-0.2667,-0.2656,-0.265,-0.2573,-0.2567,-0.228,-0.221,-0.2587,-0.2588,-0.2589,-0.2591,0,-0.2145,-0.222,-0.2231,-0.226,-0.236,-0.2374,-0.2419,-0.2481,-0.2505,-0.2545,-0.2555,-0.2578,-0.2584,-0.256,-0.2578,-0.2605,-0.2515,-0.2534,-0.243,-0.2425,-0.225,-0.2232,-0.2461,-0.2462,-0.2462,-0.2462,-0.2462,0,-0.2077,-0.2084,-0.2178,-0.2185,-0.219,-0.2288,-0.2291,-0.2349,-0.241,-0.2419,-0.2501,-0.2499,-0.255,-0.2528,-0.2528,-0.2446,-0.246,-0.2407,-0.2378,-0.2249,-0.2233,-0.2515,-0.2523,-0.2458,-0.2459,-0.246,-0.246,0,-0.1958,-0.2024,-0.204,-0.2123,-0.2142,-0.2139,-0.2225,-0.2237,-0.2311,-0.2324,-0.2338,-0.2419,-0.2391,-0.2418,-0.2375,-0.2362,-0.2302,-0.226,-0.2114,-0.207,-0.2254,-0.2264,-0.211,-0.2107,-0.2103,-0.2101,-0.2099,0,-0.1906,-0.19,-0.1962,-0.1968,-0.2003,-0.2028,-0.2056,-0.2163,-0.2185,-0.2263,-0.2256,-0.2263,-0.2239,-0.2167,-0.2129,-0.2058,-0.2175,-0.1884,-0.1905,-0.2224,-0.2213,-0.2228,-0.2241,-0.1673,-0.1668,-0.1663,-0.166,0,-0.1798,-0.1814,-0.1835,-0.184,-0.1861,-0.1886,-0.1934,-0.1942,-0.2058,-0.2073,-0.2077,-0.2058,-0.2007,-0.1872,-0.1817,-0.1768,-0.189,-0.1789,-0.2113,-0.1807,-0.1806,-0.1799,-0.1827,-0.162,-0.1624,-0.1626,-0.1629,-0.163,-0.1707,-0.1688,-0.1709,-0.1705,-0.173,-0.1732,-0.1703,-0.1767,-0.1771,-0.1771,-0.1845,-0.1765,-0.1769,-0.1575,-0.1503,-0.1461,-0.159,-0.1552,-0.1568,-0.1588,-0.1576,-0.1572,-0.1338,-0.1341,-0.1343,-0.1344,-0.1346,0,-0.1589,-0.1587,-0.1579,-0.1572,-0.1545,-0.16,-0.1612,-0.1559,-0.1512,-0.1538,-0.151,-0.1349,-0.1261,-0.1275,-0.113,-0.1117,-0.1124,-0.1094,-0.1108,-0.1147,-0.1182,-0.1153,-0.0801,-0.08,-0.0798,-0.0797,0,0,-0.153,-0.1483,-0.1481,-0.139,-0.1382,-0.1295,-0.1269,-0.1206,-0.1182,-0.1092,-0.1056,-0.1155,-0.12,-0.0994,-0.0954,-0.085,-0.0989,-0.0806,-0.1236,-0.1286,-0.132,-0.143,-0.1427,0,0,0,0,0]},{"header":{"parameterUnit":"m.s-1","parameterCategory":2,"la1":30.2991,"la2":30.254,"lo1":-89.0895,"lo2":-89.0444,"dy":0.0017,"dx":0.0017,"nx":28,"ny":28,"refTime":"2023-10-28T21:00:00:Z","depth":"2","parameterNumber":3,"parameterNumberName":"V-component_of_CURRENTS"},"data":[0,0,0,0,0,0,0,0,0,0,0,0,0,0,0,0,0,0,0,0,0,0,0,0,0,0,0,0,0,0,0,0,0,0,0,0,0,0,0,0,0,0,0,0,0,0,0,0,0,0,0,0,0,0,0,0,0,0,-0.0166,-0.0165,0,-0.0054,-0.0052,-0.0051,0.0026,0.0027,0.0027,0.0028,0.0171,0.0174,0.0178,0,0,0,0,0,0,0,0,0,0,0,0,0,-0.0298,-0.0296,-0.0166,-0.0165,-0.0163,-0.0054,-0.0052,-0.0051,0.0026,0.0027,0.0027,0.0028,0.017,0.0174,0.0178,0,0,0,0,0,0,0,0,0,0,0,0,0,-0.0217,-0.0295,-0.0166,-0.0113,-0.0108,-0.0054,-0.0052,-0.005,0.0026,0.0027,0.0027,0.0028,0.0168,0.0173,0.0179,0.0199,0,0,0.0194,0.0197,0,0,0,0,0,0,0,0,-0.0221,-0.0212,-0.0122,-0.0117,-0.011,-0.0029,-0.0046,0.0034,0.0026,-0.0022,0.0028,0.0028,0.0105,0.0116,0.0138,0.0205,0.0212,0.0195,0.0198,0.02,0.0202,0,0,0,0,0,0,0,-0.0227,-0.0216,-0.0119,-0.0121,-0.0114,-0.009,-0.0078,-0.0031,0.0039,-0.0018,-0.0013,-0.0004,0.0109,0.0133,0.0142,0.0214,0.0195,0.0199,0.0202,0.0205,0.0347,0.0348,0,0,0,0,0,0,-0.0246,-0.0221,-0.0123,-0.0116,-0.0168,-0.0089,-0.0075,-0.0054,0.0038,0.0052,-0.0004,-0.0001,0.0124,0.0136,0.0147,0.0185,0.02,0.0205,0.0208,0.0347,0.0347,0.0348,0,0,0,0,0,0,-0.0249,-0.0238,-0.0127,-0.0169,-0.0153,-0.0087,-0.0064,-0.0052,-0.0028,0.0048,0.0063,0.0007,0.0125,0.014,0.0198,0.0191,0.0207,0.0212,0.0346,0.0347,0.0348,0.0256,0,0,0,0,0,0,-0.0253,-0.0239,-0.0237,-0.017,-0.0152,-0.0105,-0.0065,-0.005,-0.0024,-0.0018,0.0062,0.0076,0.0126,0.019,0.0203,0.0198,0.0216,0.0345,0.0346,0.0347,0.0258,0.0254,0.025,0,0,0,0,0,-0.0258,-0.0259,-0.0237,-0.0226,-0.0148,-0.0106,-0.0095,-0.0045,-0.0025,-0.002,0.0045,0.0074,0.0207,0.0194,0.021,0.0206,0.0344,0.0346,0.0347,0.026,0.0254,0.025,0,0,0,0,0,0,-0.0325,-0.0249,-0.0224,-0.0205,-0.0164,-0.0094,-0.0088,-0.0053,0.0002,0.0009,0.0082,0.0101,0.015,0.0196,0.0179,0.0255,0.0281,0.0285,0.0209,0.0204,0.02,0.0181,0.022,0,0,0,0,0,-0.0338,-0.0314,-0.0246,-0.0237,-0.0216,-0.0154,-0.0133,-0.0098,-0.004,-0.0016,0.0042,0.0109,0.0169,0.0198,0.0257,0.0294,0.0338,0.0305,0.0301,0.0296,0.0294,0.0359,0.036,0.0353,0.0353,0.0353,0,0,-0.0367,-0.0321,-0.0311,-0.0249,-0.0212,-0.0189,-0.0139,-0.0112,-0.0092,-0.0009,0.0033,0.0095,0.0177,0.0224,0.0249,0.0259,0.0321,0.0298,0.0294,0.0294,0.0361,0.0361,0.0361,0.0354,0.0354,0.0354,0,0,-0.041,-0.0367,-0.0359,-0.0324,-0.027,-0.0227,-0.0223,-0.0154,-0.0122,-0.0074,-0.0005,0.0054,0.0137,0.0197,0.0239,0.0248,0.0298,0.0265,0.0225,0.0288,0.0288,0.0289,0.0333,0.0339,0.0261,0.026,0.026,0,-0.0451,-0.0421,-0.0357,-0.0339,-0.0319,-0.0249,-0.0243,-0.0199,-0.0122,-0.0092,-0.0074,0.0065,0.0125,0.0197,0.0201,0.0236,0.0275,0.0229,0.0279,0.0281,0.0284,0.0329,0.0337,0.0256,0.0257,0.0257,0.0258,0,-0.0478,-0.0458,-0.0455,-0.0401,-0.0373,-0.036,-0.029,-0.0259,-0.0214,-0.016,-0.0086,0.0003,0.0086,0.0112,0.0158,0.021,0.0232,0.0263,0.0281,0.0278,0.0327,0.0336,0.025,0.0252,0.0253,0.0254,0,0,-0.0553,-0.0487,-0.0486,-0.0473,-0.0403,-0.0384,-0.0351,-0.0293,-0.0265,-0.0192,-0.0148,-0.0049,0.0003,0.0054,0.0123,0.0174,0.0218,0.0215,0.022,0.0239,0.0344,0.0362,0.0375,0.0254,0.0256,0.0257,0.0364,0,-0.0595,-0.0588,-0.0535,-0.0532,-0.052,-0.0448,-0.0421,-0.036,-0.0296,-0.0236,-0.0138,-0.0069,-0.0018,0.0019,0.0079,0.0193,0.0241,0.0185,0.0361,0.0366,0.0367,0.0386,0.0344,0.0437,0.0374,0.0375,0.0377,0,-0.0629,-0.0618,-0.0627,-0.0583,-0.0572,-0.0561,-0.0502,-0.0467,-0.0362,-0.0309,-0.0224,-0.0138,-0.004,-0.0003,0.017,0.0132,0.0224,0.0304,0.0311,0.0367,0.0403,0.0436,0.0457,0.0393,0.0392,0.039,0.0389,0,-0.0703,-0.0677,-0.0691,-0.0677,-0.062,-0.0614,-0.0584,-0.0496,-0.046,-0.0356,-0.0313,-0.0181,-0.0107,0.0022,0.0187,0.0181,0.0374,0.0392,0.0494,0.0496,0.0516,0.0517,0.0504,0.0504,0.0504,0.0504,0.0503,0,-0.0752,-0.0758,-0.0731,-0.0736,-0.0748,-0.0686,-0.0674,-0.0619,-0.0536,-0.0484,-0.0361,-0.0288,-0.0097,0.0043,0.0177,0.0367,0.0372,0.0491,0.0531,0.0483,0.048,0.049,0.0487,0.0508,0.0507,0.0506,0.0505,0,-0.081,-0.0795,-0.0808,-0.0784,-0.078,-0.079,-0.0744,-0.0724,-0.0641,-0.057,-0.054,-0.036,-0.0171,0.0021,0.0249,0.0359,0.0532,0.0595,0.0516,0.0544,0.0609,0.06,0.0716,0.0717,0.0719,0.072,0.0721,0,-0.083,-0.0847,-0.0858,-0.0875,-0.0867,-0.0869,-0.0862,-0.0789,-0.0756,-0.0604,-0.0571,-0.0378,-0.0213,0.0119,0.0342,0.0582,0.0586,0.0667,0.0651,0.0607,0.0634,0.0623,0.0612,0.0639,0.0639,0.0639,0.0639,0,-0.0867,-0.0881,-0.0896,-0.0939,-0.0955,-0.096,-0.0942,-0.0929,-0.0823,-0.0738,-0.0582,-0.0441,-0.0117,0.0155,0.045,0.0575,0.0623,0.0679,0.0679,0.0586,0.0542,0.0566,0.0557,0.0641,0.0641,0.0641,0.0641,0.0641,-0.0892,-0.0924,-0.0955,-0.0991,-0.1017,-0.103,-0.1021,-0.0974,-0.0906,-0.0744,-0.0605,-0.0367,-0.0111,0.0317,0.0518,0.0685,0.069,0.0726,0.0722,0.0719,0.0685,0.0646,0.0757,0.0757,0.0758,0.0758,0.0758,0,-0.0911,-0.0949,-0.0994,-0.1038,-0.1071,-0.1069,-0.105,-0.1008,-0.0915,-0.0744,-0.056,-0.0268,0.0042,0.0293,0.0572,0.0745,0.0717,0.0752,0.0689,0.0686,0.0684,0.0645,0.0709,0.0709,0.071,0.071,0,0,-0.0922,-0.0972,-0.1,-0.1064,-0.1093,-0.1101,-0.1083,-0.1007,-0.0881,-0.0698,-0.0518,-0.0255,0.0055,0.0245,0.0459,0.0595,0.0588,0.0591,0.0611,0.0509,0.0505,0.065,0.0585,0,0,0,0,0]}],[{"header":{"parameterUnit":"m.s-1","parameterCategory":2,"la1":30.2991,"la2":30.254,"lo1":-89.0895,"lo2":-89.0444,"dy":0.0017,"dx":0.0017,"nx":28,"ny":28,"refTime":"2023-10-28T21:00:00:Z","depth":"4","parameterNumber":2,"parameterNumberName":"U-component_of_CURRENTS"},"data":[0,0,0,0,0,0,0,0,0,0,0,0,0,0,0,0,0,0,0,0,0,0,0,0,0,0,0,0,0,0,0,0,0,0,0,0,0,0,0,0,0,0,0,0,0,0,0,0,0,0,0,0,0,0,0,0,0,0,-0.1572,-0.1572,0,-0.1601,-0.1601,-0.1601,-0.1634,-0.1634,-0.1634,-0.1635,-0.1638,-0.1638,-0.1638,0,0,0,0,0,0,0,0,0,0,0,0,0,-0.1564,-0.1564,-0.1572,-0.1572,-0.1573,-0.16,-0.1601,-0.1602,-0.1634,-0.1634,-0.1634,-0.1635,-0.1638,-0.1638,-0.1638,0,0,0,0,0,0,0,0,0,0,0,0,0,-0.1579,-0.1564,-0.1572,-0.1591,-0.1593,-0.16,-0.1601,-0.1602,-0.1634,-0.1634,-0.1635,-0.1635,-0.1639,-0.1638,-0.1638,-0.1626,0,0,-0.1637,-0.1637,0,0,0,0,0,0,0,0,-0.1578,-0.1579,-0.1588,-0.159,-0.1592,-0.1613,-0.1599,-0.1608,-0.1633,-0.162,-0.1635,-0.1635,-0.1626,-0.1627,-0.1634,-0.1626,-0.1626,-0.1637,-0.1637,-0.1637,-0.1636,0,0,0,0,0,0,0,-0.1577,-0.1578,-0.1585,-0.1588,-0.159,-0.1604,-0.1607,-0.1602,-0.162,-0.1621,-0.1623,-0.1623,-0.1627,-0.1634,-0.1634,-0.1626,-0.1637,-0.1637,-0.1636,-0.1636,-0.1719,-0.1722,0,0,0,0,0,0,-0.1569,-0.1577,-0.1584,-0.1586,-0.1584,-0.1603,-0.1607,-0.1607,-0.1621,-0.1624,-0.1623,-0.1625,-0.1634,-0.1634,-0.1634,-0.1702,-0.1637,-0.1636,-0.1636,-0.1717,-0.172,-0.1722,0,0,0,0,0,0,-0.1568,-0.1569,-0.1583,-0.1581,-0.1583,-0.1603,-0.1603,-0.1607,-0.1644,-0.1623,-0.1625,-0.1659,-0.1635,-0.1634,-0.1665,-0.1699,-0.1636,-0.1636,-0.1714,-0.1718,-0.1721,-0.1785,0,0,0,0,0,0,-0.1568,-0.1569,-0.1584,-0.158,-0.1583,-0.1612,-0.1602,-0.1607,-0.1641,-0.1645,-0.1654,-0.1653,-0.1635,-0.1666,-0.1665,-0.1698,-0.1636,-0.1711,-0.1716,-0.172,-0.178,-0.1791,-0.18,0,0,0,0,0,-0.1568,-0.1585,-0.1584,-0.1586,-0.1597,-0.1613,-0.1618,-0.1633,-0.1642,-0.1668,-0.1678,-0.1654,-0.1694,-0.1667,-0.1665,-0.1699,-0.1709,-0.1714,-0.172,-0.1776,-0.1789,-0.1799,0,0,0,0,0,0,-0.1591,-0.1589,-0.1589,-0.1605,-0.1618,-0.1619,-0.1645,-0.1653,-0.1682,-0.1694,-0.1676,-0.1676,-0.172,-0.1706,-0.1677,-0.1741,-0.1701,-0.1706,-0.1745,-0.1756,-0.1766,-0.1755,-0.1635,0,0,0,0,0,-0.16,-0.1615,-0.1612,-0.163,-0.1638,-0.1648,-0.1663,-0.1674,-0.1688,-0.1704,-0.1709,-0.1721,-0.1736,-0.1744,-0.1753,-0.1779,-0.1747,-0.1805,-0.1815,-0.1823,-0.1817,-0.1804,-0.1811,-0.174,-0.174,-0.174,0,0,-0.1613,-0.1615,-0.1624,-0.1637,-0.1649,-0.1671,-0.166,-0.1694,-0.1722,-0.1697,-0.175,-0.1756,-0.1753,-0.179,-0.1808,-0.1783,-0.183,-0.183,-0.1837,-0.1825,-0.1811,-0.1817,-0.1823,-0.1744,-0.1743,-0.1743,0,0,-0.1635,-0.165,-0.1665,-0.1684,-0.1707,-0.1713,-0.1731,-0.1751,-0.1774,-0.1814,-0.1811,-0.1835,-0.186,-0.1859,-0.1861,-0.193,-0.1886,-0.1951,-0.1982,-0.1971,-0.1976,-0.198,-0.1951,-0.1952,-0.1951,-0.1951,-0.1951,0,-0.165,-0.1662,-0.1676,-0.1699,-0.1716,-0.1737,-0.1759,-0.179,-0.1823,-0.1832,-0.1844,-0.1883,-0.1887,-0.1909,-0.1946,-0.1948,-0.1932,-0.1933,-0.198,-0.1983,-0.1986,-0.1956,-0.1956,-0.1954,-0.1954,-0.1954,-0.1953,0,-0.1668,-0.1698,-0.1714,-0.1744,-0.1773,-0.18,-0.1831,-0.1871,-0.1899,-0.1909,-0.1952,-0.1962,-0.1972,-0.1996,-0.1994,-0.2026,-0.2006,-0.1994,-0.1941,-0.1996,-0.1962,-0.1961,-0.196,-0.1959,-0.1957,-0.1956,0,0,-0.1626,-0.1707,-0.1711,-0.1735,-0.1797,-0.181,-0.1876,-0.1906,-0.193,-0.1978,-0.1996,-0.2043,-0.204,-0.2044,-0.2048,-0.2054,-0.207,-0.2044,-0.2042,-0.1999,-0.204,-0.1907,-0.1892,-0.2071,-0.2071,-0.2071,-0.2008,0,-0.1625,-0.1672,-0.1717,-0.1769,-0.1791,-0.1847,-0.1895,-0.1938,-0.1973,-0.2004,-0.2023,-0.2048,-0.2061,-0.2072,-0.2083,-0.2075,-0.2069,-0.2087,-0.2007,-0.2004,-0.1865,-0.1887,-0.2072,-0.2007,-0.2006,-0.2006,-0.2006,0,-0.1599,-0.1638,-0.1686,-0.1766,-0.1779,-0.1824,-0.1882,-0.1928,-0.1984,-0.2012,-0.2042,-0.2057,-0.2083,-0.2086,-0.208,-0.2096,-0.2075,-0.2064,-0.2061,-0.1907,-0.1868,-0.1942,-0.2002,-0.2002,-0.2003,-0.2003,-0.2003,0,-0.1519,-0.1605,-0.164,-0.167,-0.1768,-0.1805,-0.1854,-0.1921,-0.1949,-0.2012,-0.2031,-0.2061,-0.2073,-0.2069,-0.2058,-0.2075,-0.2034,-0.204,-0.1893,-0.1883,-0.1991,-0.1988,-0.2019,-0.202,-0.202,-0.202,-0.202,0,-0.1468,-0.1499,-0.1612,-0.1631,-0.1671,-0.1759,-0.1799,-0.1858,-0.1928,-0.1941,-0.2021,-0.2021,-0.2075,-0.2062,-0.205,-0.1953,-0.2017,-0.1886,-0.1854,-0.2023,-0.2024,-0.1989,-0.1987,-0.2018,-0.2018,-0.2019,-0.2019,0,-0.1369,-0.1447,-0.1494,-0.1603,-0.1636,-0.1661,-0.1765,-0.1789,-0.1875,-0.1898,-0.1919,-0.1989,-0.1965,-0.1984,-0.1963,-0.1912,-0.1851,-0.1799,-0.1965,-0.1945,-0.1711,-0.1713,-0.1622,-0.1617,-0.1612,-0.1608,-0.1605,0,-0.1323,-0.1339,-0.1449,-0.1477,-0.1532,-0.1592,-0.1632,-0.1742,-0.1764,-0.1848,-0.1837,-0.186,-0.1883,-0.1735,-0.1784,-0.1723,-0.1711,-0.1676,-0.171,-0.169,-0.1669,-0.1678,-0.1686,-0.1598,-0.1597,-0.1596,-0.1595,0,-0.1233,-0.1282,-0.1324,-0.1375,-0.1427,-0.1468,-0.1533,-0.1533,-0.1639,-0.1736,-0.1694,-0.1677,-0.1642,-0.1624,-0.1586,-0.1552,-0.1701,-0.1629,-0.1639,-0.1671,-0.166,-0.1646,-0.1659,-0.1579,-0.1581,-0.1583,-0.1584,0,-0.1167,-0.117,-0.1229,-0.1259,-0.1318,-0.1323,-0.1374,-0.1395,-0.1426,-0.1533,-0.1506,-0.154,-0.1604,-0.1531,-0.1495,-0.145,-0.1437,-0.141,-0.1431,-0.1449,-0.1424,-0.1388,-0.118,0,0,0,0,0,-0.1094,-0.1087,-0.1109,-0.1136,-0.1188,-0.1215,-0.1298,-0.1355,-0.1455,-0.1379,-0.1438,-0.1396,-0.135,-0.1373,-0.1287,-0.1421,-0.1447,-0.1318,-0.1429,-0.1493,-0.1511,-0.1501,0,0,0,0,0,0,-0.1048,-0.1065,-0.1067,-0.1023,-0.1016,-0.1052,-0.1098,-0.1171,-0.1135,-0.1243,-0.1215,-0.1306,-0.1272,-0.1358,-0.1252,-0.126,-0.1301,-0.1351,-0.1348,-0.1483,-0.1499,-0.1513,-0.1509,0,0,0,0,0]},{"header":{"parameterUnit":"m.s-1","parameterCategory":2,"la1":30.2991,"la2":30.254,"lo1":-89.0895,"lo2":-89.0444,"dy":0.0017,"dx":0.0017,"nx":28,"ny":28,"refTime":"2023-10-28T21:00:00:Z","depth":"4","parameterNumber":3,"parameterNumberName":"V-component_of_CURRENTS"},"data":[0,0,0,0,0,0,0,0,0,0,0,0,0,0,0,0,0,0,0,0,0,0,0,0,0,0,0,0,0,0,0,0,0,0,0,0,0,0,0,0,0,0,0,0,0,0,0,0,0,0,0,0,0,0,0,0,0,0,-0.0147,-0.0147,0,-0.009,-0.0089,-0.0088,-0.0044,-0.0043,-0.0043,-0.0043,0.0017,0.0018,0.002,0,0,0,0,0,0,0,0,0,0,0,0,0,-0.0209,-0.0208,-0.0147,-0.0147,-0.0146,-0.009,-0.0089,-0.0088,-0.0044,-0.0043,-0.0043,-0.0043,0.0017,0.0018,0.002,0,0,0,0,0,0,0,0,0,0,0,0,0,-0.0169,-0.0208,-0.0148,-0.0119,-0.0116,-0.009,-0.0089,-0.0088,-0.0044,-0.0043,-0.0043,-0.0043,0.0016,0.0018,0.002,0.0025,0,0,0.0026,0.0027,0,0,0,0,0,0,0,0,-0.0171,-0.0166,-0.0123,-0.0121,-0.0117,-0.0075,-0.0089,-0.0051,-0.0044,-0.0069,-0.0043,-0.0042,-0.0015,-0.001,0.0002,0.0028,0.003,0.0027,0.0028,0.0029,0.0029,0,0,0,0,0,0,0,-0.0174,-0.0168,-0.0123,-0.0123,-0.0119,-0.0106,-0.0099,-0.0081,-0.0044,-0.0067,-0.0064,-0.0061,-0.0013,0.0,0.0004,0.0031,0.0027,0.0028,0.003,0.003,0.0084,0.0084,0,0,0,0,0,0,-0.0185,-0.0171,-0.0125,-0.0121,-0.0146,-0.0105,-0.0098,-0.0088,-0.0044,-0.0037,-0.0061,-0.0059,-0.0004,0.0001,0.0006,0.0028,0.0029,0.0031,0.0032,0.0084,0.0084,0.0084,0,0,0,0,0,0,-0.0187,-0.0182,-0.0127,-0.0147,-0.0139,-0.0105,-0.0093,-0.0087,-0.0074,-0.004,-0.0032,-0.0055,-0.0003,0.0003,0.0026,0.003,0.0031,0.0033,0.0084,0.0084,0.0084,0.0062,0,0,0,0,0,0,-0.0189,-0.0182,-0.0184,-0.0147,-0.0138,-0.0119,-0.0094,-0.0086,-0.0073,-0.007,-0.0033,-0.0026,-0.0002,0.0022,0.0028,0.0032,0.0035,0.0083,0.0084,0.0084,0.0062,0.0061,0.006,0,0,0,0,0,-0.0191,-0.0195,-0.0184,-0.0179,-0.014,-0.0119,-0.0114,-0.0087,-0.0074,-0.0073,-0.0041,-0.0028,0.0029,0.0024,0.003,0.0036,0.0083,0.0084,0.0084,0.0062,0.0061,0.006,0,0,0,0,0,0,-0.0231,-0.019,-0.0177,-0.0171,-0.0151,-0.0113,-0.0112,-0.0092,-0.0065,-0.0062,-0.0026,-0.0018,0.0003,0.0021,0.0015,0.0053,0.0058,0.006,0.004,0.0039,0.0038,0.003,0.0037,0,0,0,0,0,-0.024,-0.0229,-0.0193,-0.0192,-0.0181,-0.0147,-0.0137,-0.0118,-0.0089,-0.0077,-0.005,-0.0019,0.001,0.0025,0.0048,0.0066,0.0097,0.0074,0.0073,0.0072,0.007,0.0132,0.0137,0.0086,0.0086,0.0086,0,0,-0.026,-0.0235,-0.0232,-0.02,-0.0181,-0.0168,-0.014,-0.0127,-0.0114,-0.0076,-0.0055,-0.0026,0.0013,0.0037,0.0048,0.0053,0.0101,0.0073,0.0072,0.007,0.0133,0.0138,0.0143,0.0086,0.0086,0.0086,0,0,-0.029,-0.0268,-0.0265,-0.0245,-0.0217,-0.0192,-0.0191,-0.0153,-0.0134,-0.0112,-0.0076,-0.0042,-0.0009,0.0029,0.0052,0.0059,0.0092,0.0062,0.0055,0.0115,0.012,0.0124,0.016,0.0169,0.0065,0.0065,0.0065,0,-0.0318,-0.0303,-0.0266,-0.0255,-0.0245,-0.0205,-0.0203,-0.0175,-0.0137,-0.0118,-0.0112,-0.0037,-0.0009,0.0043,0.0045,0.0057,0.0088,0.0056,0.0114,0.0119,0.0125,0.0161,0.017,0.0064,0.0064,0.0064,0.0064,0,-0.0336,-0.0327,-0.0326,-0.0294,-0.0278,-0.0273,-0.0229,-0.0212,-0.0186,-0.0151,-0.0104,-0.0056,-0.0009,0.0007,0.0026,0.0078,0.0086,0.0104,0.0116,0.0129,0.0166,0.0176,0.0063,0.0063,0.0063,0.0063,0,0,-0.0389,-0.0348,-0.035,-0.0343,-0.0299,-0.029,-0.0264,-0.0226,-0.0206,-0.0159,-0.0126,-0.0065,-0.0033,-0.0005,0.0034,0.0085,0.0142,0.0103,0.0107,0.0137,0.0261,0.0224,0.0231,0.0174,0.0176,0.0177,0.0269,0,-0.0417,-0.0417,-0.0381,-0.0383,-0.0377,-0.033,-0.031,-0.0267,-0.0225,-0.0183,-0.011,-0.007,-0.0036,-0.0017,0.0044,0.0115,0.0169,0.0115,0.0247,0.025,0.0215,0.0242,0.0183,0.0277,0.0279,0.0281,0.0282,0,-0.044,-0.0436,-0.0448,-0.0421,-0.0414,-0.0411,-0.0371,-0.0347,-0.0267,-0.023,-0.0161,-0.0104,-0.0022,-0.0001,0.0144,0.0108,0.0179,0.0237,0.0243,0.0223,0.0232,0.0266,0.0301,0.0299,0.0298,0.0297,0.0296,0,-0.049,-0.0479,-0.0495,-0.0487,-0.0452,-0.0452,-0.0434,-0.0369,-0.0346,-0.0263,-0.0234,-0.0119,-0.0071,0.0045,0.0161,0.0157,0.0316,0.033,0.0368,0.0366,0.0382,0.0376,0.0438,0.0437,0.0437,0.0437,0.0437,0,-0.052,-0.0531,-0.0529,-0.0536,-0.0555,-0.051,-0.051,-0.0468,-0.0408,-0.0372,-0.027,-0.0217,-0.0056,0.0053,0.0162,0.029,0.0324,0.037,0.0393,0.0368,0.0359,0.0388,0.0381,0.044,0.044,0.0439,0.0438,0,-0.0554,-0.0554,-0.0575,-0.0573,-0.0578,-0.0593,-0.0574,-0.0561,-0.05,-0.0452,-0.0429,-0.0286,-0.0142,0.0015,0.0203,0.0276,0.0408,0.0446,0.0393,0.0411,0.0417,0.0408,0.05,0.05,0.0499,0.0499,0.0499,0,-0.0563,-0.0582,-0.0618,-0.0642,-0.0647,-0.0663,-0.0666,-0.0618,-0.0595,-0.0489,-0.0464,-0.0324,-0.0214,0.0029,0.0183,0.039,0.0415,0.0472,0.0459,0.0413,0.0427,0.0419,0.041,0.0498,0.0498,0.0498,0.0498,0,-0.0579,-0.0607,-0.0628,-0.0686,-0.0716,-0.0733,-0.0734,-0.0724,-0.065,-0.0605,-0.0473,-0.0333,-0.0172,0.0021,0.0177,0.0326,0.0429,0.0469,0.0471,0.0459,0.0412,0.0424,0.0417,0.0497,0.0497,0.0497,0.0497,0,-0.0595,-0.0625,-0.0669,-0.0712,-0.076,-0.078,-0.0777,-0.0729,-0.0695,-0.057,-0.0532,-0.0337,-0.0219,-0.0012,0.0134,0.0271,0.0304,0.0338,0.0347,0.0351,0.0273,0.0189,0.0231,0,0,0,0,0,-0.0599,-0.0634,-0.0683,-0.0734,-0.0784,-0.0803,-0.0803,-0.0784,-0.0723,-0.0636,-0.0575,-0.0415,-0.0177,-0.0069,0.0064,0.0107,0.0306,0.0262,0.0344,0.049,0.0491,0.0421,0,0,0,0,0,0,-0.0604,-0.0655,-0.0682,-0.0742,-0.0776,-0.0818,-0.0819,-0.0779,-0.0714,-0.0635,-0.0502,-0.0409,-0.0176,-0.0251,0.006,0.0101,0.0165,0.0383,0.0385,0.0489,0.049,0.0491,0.042,0,0,0,0,0]}]]